Location: Hamayl? Da??
(36.7028°N, 30.1716°E)
Time: 15:21:42
(UTC+00:00)

ERS-1 Rocket - Pass Details

Date: 04 August 2024
Orbit: 750 x 753 km, 98.3° (Epoch: 12 September)

Event Time Altitude Azimuth Distance (km) Brightness Sun altitude
Exits shadow 19:16:34 52° 180° (S) 924 3.1 -23.2°
Maximum altitude 19:17:46 80° 257° (WSW) 765 2.9 -23.4°
Drops below altitude 10° 19:22:47 10° 345° (NNW) 2,277 6.3 -24.1°
Sets 19:25:06 0° 347° (NNW) 3,205 7.2 -24.4°
